Weather Roundup
Issued by NWS Springfield, MO

Home | Current Version | Previous Version | Text Only | Print | Product List | Glossary On
Versions: 1 2 3 4 5 6 7 8 9 10 11 12 13 14 15 16 17 18 19 20 21 22 23 24 25 26 27 28 29 30 31 32 33 34 35 36 37 38 39 40 41 42 43 44 45 46 47 48 49 50
000
NZUS99 KSGF 170457
HRRSGF

HOURLY WEATHER
NATIONAL WEATHER SERVICE SPRINGFIELD MO
1100 PM CST MON JAN 16 2017

......SGF CWA......

CITY           SKY/WX    TMP DP  RH WIND       PRES   REMARKS
SPRINGFIELD    CLOUDY    43  35  73 W16       29.97S
JOPLIN         CLOUDY    42  37  82 MISG      30.01R
WEST PLAINS    PTCLDY    51  47  86 W15G22    29.96R
ROLLA          LGT RAIN  47  42  83 W20       29.90R

......SURROUNDING SGF CWA......

CITY           SKY/WX    TMP DP  RH WIND       PRES   REMARKS
CHANUTE        CLOUDY    39  35  86 W13       30.01R WCI  31
PARSONS        CLOUDY    40  37  89 W7        30.02R
EMPORIA        CLOUDY    34  33  96 W10       29.99R WCI  26
HARRISON AR    PTCLDY    44  38  79 W8        30.01R

......KANSAS AND MISSOURI......

CITY           SKY/WX    TMP DP  RH WIND       PRES   REMARKS
KANSAS CTY INT DRZL/FOG  36  34  92 W13       29.94R VSB 1/2 WCI  27
SEDALIA        CLOUDY    42  38  85 W12       29.94S
ST JOSEPH      CLOUDY    34  34 100 NW12      29.95R WCI  25
ST LOUIS       MOCLDY    58  54  86 SW10      29.83S
WICHITA        CLOUDY    36  34  92 NW13      30.03R WCI  27
TOPEKA         CLOUDY    36  32  85 NW14      29.97S WCI  27
OLATHE         CLOUDY    37  36  96 W13       29.94R WCI  29

......TENNESSEE......

CITY           SKY/WX    TMP DP  RH WIND       PRES   REMARKS
MEMPHIS        NOT AVBL
NASHVILLE      CLOUDY    63  54  72 S14       30.04F

......ARKANSAS.......

CITY           SKY/WX    TMP DP  RH WIND       PRES   REMARKS
FAYETTEVILLE   CLEAR     38  37  97 SW3       30.03R
FT SMITH       CLEAR     46  39  76 SW3       30.04S
LITTLE ROCK    CLOUDY    58  58 100 S6        30.00S

......OKLAHOMA.......

CITY           SKY/WX    TMP DP  RH WIND       PRES   REMARKS
TULSA          PTCLDY    39  35  86 W7        30.06R WCI  34
PONCA CITY     CLOUDY    39  33  79 NW6       30.06R WCI  35
MCALESTER      CLOUDY    43  35  73 NW9       30.08R
OKLAHOMA CITY  PTCLDY    38  33  82 W9        30.08R WCI  31

......IOWA............

CITY           SKY/WX    TMP DP  RH WIND       PRES   REMARKS
DES MOINES     NOT AVBL
QUAD CITIES    MIX PCPN  37  35  92 CALM      29.81F VSB 1

......ILLINOIS........

CITY           SKY/WX    TMP DP  RH WIND       PRES   REMARKS
QUINCY         LGT RAIN  46  46 100 W9        29.83R FOG
CHICAGO        DRIZZLE   37  36  96 NE8       29.86F FOG     WCI  31




USA.gov is the U.S. government's official web portal to all federal, state and local government web resources and services.